Other Public Products
Issued by NWS Grand Forks, ND

Home | Current Version | Previous Version | Graphics & Text | Print | Product List | Glossary On
Versions: 1 2 3 4 5 6 7 8 9 10 11 12 13 14 15 16 17 18 19 20 21 22 23 24 25 26 27 28 29 30 31 32 33 34 35 36 37 38 39 40 41 42 43 44 45 46 47 48 49 50
000
FPUS83 KFGF 290510
OPUFGF
PRAIRIE TO PINES WEATHER ROUNDUP
NATIONAL WEATHER SERVICE EASTERN NORTH DAKOTA/GRAND FORKS ND
1200 AM CDT FRI AUG 29 2014

 **SATELLITE DATA USED TO AUGMENT SKY COVER AT AUTOMATED STATIONS**
 *****  WEATHER ACROSS EASTERN NORTH DAKOTA  *****

CITY           SKY/WX    TMP DP  RH WIND       PRES   REMARKS
GRAND FORKS    CLOUDY    68  64  87 S9        29.83F
GRAND FORKS AF CLOUDY    67  67  99 SW10      29.84F
GRAND CITY NWS   N/A     66 N/A N/A S13         N/A
BUXTON         NOT AVBL
DEVILS LAKE    MOCLDY    66  61  82 S13       29.79F
FARGO          CLOUDY    67  64  90 SE8       29.85F
WAHPETON ARPT  CLOUDY    64  61  88 SE6       29.85F
$$

 *****  WEATHER ACROSS CENTRAL AND WESTERN NORTH DAKOTA  *****

CITY           SKY/WX    TMP DP  RH WIND       PRES   REMARKS
JAMESTOWN      CLOUDY    66  64  93 S8        29.84F FOG
BISMARCK       PTCLDY    62  62 100 S3        29.83F
MINOT          MOCLDY    72  64  76 S15G23    29.75S
MINOT AFB      PTCLDY    70  69  98 S14       29.73F
GARRISON         N/A     67  66  97 S6        29.79F
WILLISTON      CLEAR     70  52  52 NW12      29.77S
DICKINSON      CLEAR     63  58  83 S10       29.82F
HETTINGER      CLEAR     63  55  75 SE6       29.87F
$$

 *****  OTHER OBSERVATIONS NORTHEAST NORTH DAKOTA  *****

CITY           SKY/WX    TMP DP  RH WIND       PRES   REMARKS
WALHALLA         N/A     66  66 100 S6        29.78F
LANGDON        CLOUDY    66  64  94 S14G20    29.80F
CAVALIER       NOT AVBL
GRAFTON        CLOUDY    66  66 100 S10       29.81F
CANDO          FAIR      66  64  94 S12       29.79F
FORT TOTTEN    NOT AVBL
ROLLA          FAIR      63  63 100 S8        29.80S
RUGBY          FAIR      64  64 100 S9        29.77F
 ***** THE ABOVE OBSERVATIONS ARE NON NWS ARE NOT QUALITY
        CONTROLLED AND MAY MIS-REPORT RAIN FOR SNOW...
$$

 *****  OTHER OBSERVATIONS SOUTHEAST NORTH DAKOTA *****

CITY           SKY/WX    TMP DP  RH WIND       PRES   REMARKS
COOPERSTOWN    NOT AVBL
VALLEY CITY    CLOUDY    64  64 100 S8        29.86S
OAKES            N/A     64  64 100 CALM      29.85R
GWINNER        NOT AVBL
SHEYENNE NWR     N/A     65  64  98 SE3       29.95S
BUFFALO        NOT AVBL
WYNDMERE       NOT AVBL
 ***** THE ABOVE OBSERVATIONS ARE NON NWS ARE NOT QUALITY
       CONTROLLED AND MAY MIS-REPORT RAIN FOR SNOW...
$$

  *****  WEATHER ACROSS NORTHERN MINNESOTA  *****

CITY           SKY/WX    TMP DP  RH WIND       PRES   REMARKS
FLAG ISLAND    CLOUDY    68  64  88 S10       29.83F
WARROAD        CLOUDY    66  64  94 S8        29.86F
ROSEAU         MOCLDY    68  63  83 S8        29.85F
HALLOCK        CLOUDY    68  64  88 S15       29.81F
THF RVR FALLS  CLOUDY    64  61  88 S5        29.87S
HALSTAD          N/A     63  61  91 S3          N/A
FOSSTON        CLOUDY    63  59  88 SE9       29.88F
BAUDETTE       CLOUDY    66  61  84 S6        29.88F
WASKISH        CLOUDY    64  61  88 CALM      29.89S
CROOKSTON      CLOUDY    66  63  88 SW3       29.86F
$$
  *****  WEATHER ACROSS CENTRAL AND WEST MINNESOTA  *****

CITY           SKY/WX    TMP DP  RH WIND       PRES   REMARKS
BEMIDJI        CLOUDY    64  61  91 S8        29.90S
PARK RAPIDS    CLOUDY    64  63  96 SE8       29.90F
WADENA         DRIZZLE   63  63 100 SE7       29.89F
DETROIT LAKES  DRIZZLE   64  63  94 SE7       29.89F
MOORHEAD       LGT RAIN  66  66 100 CALM      29.86F
FERGUS FALLS   CLOUDY    64  64 100 SE6       29.86F FOG
ELBOW LAKE     CLOUDY    64  64  98 SE8       29.86F
MORRIS MN      CLOUDY    66  66 100 SE14G20   29.85F FOG
STAPLES        RAIN      63  63 100 SE6       29.90F
WHEATON        CLOUDY    63  63 100 E5        29.86F
$$
  *****  WEATHER ELSEWHERE ACROSS MINNESOTA  *****

CITY           SKY/WX    TMP DP  RH WIND       PRES   REMARKS
DULUTH         CLOUDY    60  55  83 E7        29.96F
INTRNTL FALLS  CLOUDY    63  61  93 CALM      29.90F
ELY            CLOUDY    61  50  67 S6        29.96S
CLOQUET        CLOUDY    61  57  88 CALM      29.96S
BRAINERD       CLOUDY    63  62  97 SE8       29.92F
HIBBING        CLOUDY    60  54  80 SE6       29.95F
ALEXANDRIA     CLOUDY    65  64  97 SE10      29.89F FOG
SAINT CLOUD    CLOUDY    68  64  87 E6        29.89F
MINNEAPOLIS    CLOUDY    67  64  90 SE13      29.90F
$$

  *****  WEATHER ACROSS SOUTH DAKOTA  *****

CITY           SKY/WX    TMP DP  RH WIND       PRES   REMARKS
SIOUX FALLS    CLOUDY    71  69  93 S3        29.81F FOG
BROOKINGS      NOT AVBL
WATERTOWN      FOG       66  65  96 CALM      29.85S VSB 1/2
HURON          CLOUDY    69  68  96 E6        29.80F
SISSETON         N/A     65  65 100 SE6       29.83F
ABERDEEN       CLOUDY    65  65 100 NE3       29.84F
MITCHELL       CLOUDY    71  70  96 E3        29.80F FOG
PIERRE         MOCLDY    66  66 100 N7        29.82F
MOBRIDGE       PTCLDY    63  63 100 E6        29.83F
RAPID CITY     PTCLDY    60  57  89 CALM      29.93S
$$

  *****  SOME WEATHER IN NEARBY STATES *****

CITY           SKY/WX    TMP DP  RH WIND       PRES   REMARKS
GLASGOW MT     MOCLDY    69  58  67 NW29G40   29.87R
GREAT FALLS MT CLOUDY    55  50  82 N16       30.11R
CHEYENNE WY    CLEAR     53  50  89 W8        30.15S
SCOTTSBLUFF NE PTCLDY    56  53  90 E6        30.03R
OMAHA NE       MOCLDY    73  68  84 SE8       29.85S
DES MOINES IA  CLOUDY    70  68  93 E3        29.92F
DAVENPORT IA   PTCLDY    68  66  93 SE8       29.98F
CHICAGO IL     CLOUDY    70  63  78 SE8       30.03F
EAU CLAIRE WI  CLOUDY    64  63  96 SE9       29.96F
LA CROSSE WI   CLOUDY    67  63  87 E8        29.95F
$$

  *****  SOME NATIONAL WEATHER *****

CITY           SKY/WX    TMP DP  RH WIND       PRES   REMARKS
LA GUARDIA NY  CLEAR     68  50  52 N8        30.06R
RALEIGH NC     PTCLDY    75  71  87 CALM      30.03R
ATLANTA GA     PTCLDY    71  59  65 S7        30.05R
NEW ORLEANS LA PTCLDY    81  73  76 S3        29.96F
OKLAHOMA CITY  LGT RAIN  71  63  75 SW10      29.94F
ALBUQUERQUE NM CLEAR     74  41  30 N9        30.15R
SALT LAKE CITY CLEAR     68  43  40 SE10      30.09F
LOS ANGELES CA CLEAR     73  56  54 SW8       29.90R
BOISE ID       CLEAR     75  37  25 CALM      29.94R
SEATTLE WA     MOCLDY    67  59  75 CALM      30.04F
$$

*** WEATHER ACROSS MANITOBA...SASKATCHEWAN AND ONTARIO ***
                ***ONTARIO***

CITY           SKY/WX    TMP DP  RH WIND       PRES   REMARKS
GERALDTON      PTCLDY    54  45  71 S7        30.00F
THUNDER BAY    MOCLDY    52  50  93 NW3       29.99F
SIOUX LOOKOUT  MOCLDY    66  59  77 SW8       29.87F
TORONTO        PTCLDY    55  48  76 NW7       30.17R
BIG TROUT LK   CLOUDY    66  55  68 SW7       29.68S
PICKLE LAKE    NOT AVBL
DRYDEN         MOCLDY    64  59  82 SW12G17   29.87F
KENORA         MOCLDY    64  61  88 S12       29.84F
$$
                *** MANITOBA***

CITY           SKY/WX    TMP DP  RH WIND       PRES   REMARKS
BRANDON        CLOUDY    72  64  78 SW16G23   29.75R THUNDER
DAUPHIN        MOCLDY    64  63  94 VRB2      29.77S
ISLAND LAKE    NOT AVBL
PILOT MOUND    NOT AVBL
THE PAS        PTCLDY    63  52  67 NW13G21   29.79R
THOMPSON       MOCLDY    54  54 100 NW3       29.70R
WINNIPEG       PTCLDY    68  64  88 S20G26    29.75F
LYNN LAKE      PTCLDY    52  46  82 MISG      29.77R
CHURCHILL      CLOUDY    52  48  87 N22G30    29.61R
GILLAM         MOCLDY    55  52  88 SW12      29.66R
$$
                ***SASKATCHEWAN***

CITY           SKY/WX    TMP DP  RH WIND       PRES   REMARKS
ESTEVAN        PTCLDY    64  61  88 N6        29.77R
KINDERSLEY     PTCLDY    54  50  87 NW7       30.00R
LLOYDMINSTER   CLEAR     52  43  71 N5        29.99R
PRINCE ALBERT  MOCLDY    55  48  76 N9        29.93R
REGINA         LGT RAIN  64  55  72 N13       29.87R


USA.gov is the U.S. government's official web portal to all federal, state and local government web resources and services.